owner,sensor,date,latitude,longitude,vertical_datum,wind_speed,wind_to_direction,wind_speed_of_gust,qcFlag 
DISL,ioos:station:DISL:CATA:1,2013-01-01T00:00:00Z,30.3085,-88.1395,0.0,3.0,75.0,99.0,'11111222,11111222,11144222' 
DISL,ioos:station:DISL:CATA:1,2013-01-01T00:30:00Z,30.3085,-88.1395,0.0,2.3,53.0,99.0,'11111222,11111222,11144222' 
DISL,ioos:station:DISL:CATA:1,2013-01-01T01:00:00Z,30.3085,-88.1395,0.0,2.4,49.0,99.0,'11111222,11111222,11144222' 
DISL,ioos:station:DISL:CATA:1,2013-01-01T01:30:00Z,30.3085,-88.1395,0.0,2.1,61.0,99.0,'11111222,11111222,11144222' 
DISL,ioos:station:DISL:CATA:1,2013-01-01T02:00:00Z,30.3085,-88.1395,0.0,2.5,58.0,99.0,'11111222,11111222,11144222' 
DISL,ioos:station:DISL:CATA:1,2013-01-01T02:30:00Z,30.3085,-88.1395,0.0,2.3,63.0,99.0,'11111222,11111222,11144222' 
DISL,ioos:station:DISL:CATA:1,2013-01-01T03:00:00Z,30.3085,-88.1395,0.0,2.0,90.0,99.0,'11111222,11111222,11144222' 
DISL,ioos:station:DISL:CATA:1,2013-01-01T03:30:00Z,30.3085,-88.1395,0.0,3.0,101.0,99.0,'11111222,11111222,11144222' 
DISL,ioos:station:DISL:CATA:1,2013-01-01T04:00:00Z,30.3085,-88.1395,0.0,2.5,111.0,99.0,'11111222,11111222,11144222' 
DISL,ioos:station:DISL:CATA:1,2013-01-01T04:30:00Z,30.3085,-88.1395,0.0,3.0,114.0,99.0,'11111222,11111222,11144222' 
DISL,ioos:station:DISL:CATA:1,2013-01-01T05:00:00Z,30.3085,-88.1395,0.0,2.4,120.0,99.0,'11111222,11111222,11144222' 
DISL,ioos:station:DISL:CATA:1,2013-01-01T05:30:00Z,30.3085,-88.1395,0.0,2.5,122.0,99.0,'11111222,11111222,11144222' 
DISL,ioos:station:DISL:CATA:1,2013-01-01T06:00:00Z,30.3085,-88.1395,0.0,4.0,130.0,99.0,'11111222,11111222,11144222' 
DISL,ioos:station:DISL:CATA:1,2013-01-01T06:30:00Z,30.3085,-88.1395,0.0,4.14,131.1,-9999.0,'1111122,1111122,1111122' 
DISL,ioos:station:DISL:CATA:1,2013-01-01T07:00:00Z,30.3085,-88.1395,0.0,5.31,133.2,-9999.0,'1111122,1111122,1111122' 
DISL,ioos:station:DISL:CATA:1,2013-01-01T07:30:00Z,30.3085,-88.1395,0.0,3.95,143.8,-9999.0,'1111122,1111122,1111122' 
DISL,ioos:station:DISL:CATA:1,2013-01-01T08:00:00Z,30.3085,-88.1395,0.0,6.61,156.3,-9999.0,'1111122,1111122,1111122' 
DISL,ioos:station:DISL:CATA:1,2013-01-01T08:30:00Z,30.3085,-88.1395,0.0,7.66,158.5,-9999.0,'1111122,1111122,1111122' 
DISL,ioos:station:DISL:CATA:1,2013-01-01T09:00:00Z,30.3085,-88.1395,0.0,6.65,167.2,-9999.0,'1111122,1111122,1111122' 
DISL,ioos:station:DISL:CATA:1,2013-01-01T09:30:00Z,30.3085,-88.1395,0.0,6.0,167.0,-9999.0,'1111122,1111122,1111122' 
DISL,ioos:station:DISL:CATA:1,2013-01-01T10:00:00Z,30.3085,-88.1395,0.0,6.77,173.4,-9999.0,'1111122,1111122,1111122' 
DISL,ioos:station:DISL:CATA:1,2013-01-01T10:30:00Z,30.3085,-88.1395,0.0,7.24,168.2,-9999.0,'1111122,1111122,1111122' 
DISL,ioos:station:DISL:CATA:1,2013-01-01T11:00:00Z,30.3085,-88.1395,0.0,7.61,168.6,-9999.0,'1111122,1111122,1111122' 
DISL,ioos:station:DISL:CATA:1,2013-01-01T11:30:00Z,30.3085,-88.1395,0.0,7.86,168.8,-9999.0,'1111122,1111122,1111122' 
DISL,ioos:station:DISL:CATA:1,2013-01-01T12:00:00Z,30.3085,-88.1395,0.0,7.91,168.2,-9999.0,'1111122,1111122,1111122' 
DISL,ioos:station:DISL:CATA:1,2013-01-01T12:30:00Z,30.3085,-88.1395,0.0,7.24,173.2,-9999.0,'1111122,1111122,1111122' 
DISL,ioos:station:DISL:CATA:1,2013-01-01T13:00:00Z,30.3085,-88.1395,0.0,8.53,176.2,-9999.0,'1111122,1111122,1111122' 
DISL,ioos:station:DISL:CATA:1,2013-01-01T13:30:00Z,30.3085,-88.1395,0.0,7.31,176.0,-9999.0,'1111122,1111122,1111122' 
DISL,ioos:station:DISL:CATA:1,2013-01-01T14:00:00Z,30.3085,-88.1395,0.0,6.8,173.5,-9999.0,'1111122,1111122,1111122' 
DISL,ioos:station:DISL:CATA:1,2013-01-01T14:30:00Z,30.3085,-88.1395,0.0,6.69,168.5,-9999.0,'1111122,1111122,1111122' 
DISL,ioos:station:DISL:CATA:1,2013-01-01T15:00:00Z,30.3085,-88.1395,0.0,7.07,167.5,-9999.0,'1111122,1111122,1111122' 
DISL,ioos:station:DISL:CATA:1,2013-01-01T15:30:00Z,30.3085,-88.1395,0.0,6.0,167.0,-9999.0,'1111122,1111122,1111122' 
DISL,ioos:station:DISL:CATA:1,2013-01-01T16:00:00Z,30.3085,-88.1395,0.0,5.54,171.8,-9999.0,'1111122,1111122,1111122' 
DISL,ioos:station:DISL:CATA:1,2013-01-01T16:30:00Z,30.3085,-88.1395,0.0,5.01,172.3,-9999.0,'1111122,1111122,1111122' 
DISL,ioos:station:DISL:CATA:1,2013-01-01T17:00:00Z,30.3085,-88.1395,0.0,5.07,176.4,-9999.0,'1111122,1111122,1111122' 
DISL,ioos:station:DISL:CATA:1,2013-01-01T17:30:00Z,30.3085,-88.1395,0.0,5.94,173.4,-9999.0,'1111122,1111122,1111122' 
DISL,ioos:station:DISL:CATA:1,2013-01-01T18:00:00Z,30.3085,-88.1395,0.0,5.18,181.2,-9999.0,'1111122,1111122,1111122' 
DISL,ioos:station:DISL:CATA:1,2013-01-01T18:30:00Z,30.3085,-88.1395,0.0,5.38,186.7,-9999.0,'1111122,1111122,1111122' 
DISL,ioos:station:DISL:CATA:1,2013-01-01T19:00:00Z,30.3085,-88.1395,0.0,5.2,184.0,-9999.0,'1111122,1111122,1111122' 
DISL,ioos:station:DISL:CATA:1,2013-01-01T19:30:00Z,30.3085,-88.1395,0.0,4.9,180.0,-9999.0,'1111122,1111122,1111122' 
DISL,ioos:station:DISL:CATA:1,2013-01-01T20:00:00Z,30.3085,-88.1395,0.0,3.7,189.8,-9999.0,'1111122,1111122,1111122' 
DISL,ioos:station:DISL:CATA:1,2013-01-01T20:30:00Z,30.3085,-88.1395,0.0,3.62,177.1,-9999.0,'1111122,1111122,1111122' 
DISL,ioos:station:DISL:CATA:1,2013-01-01T21:00:00Z,30.3085,-88.1395,0.0,3.92,174.4,-9999.0,'1111122,1111122,1111122' 
DISL,ioos:station:DISL:CATA:1,2013-01-01T21:30:00Z,30.3085,-88.1395,0.0,3.96,169.1,-9999.0,'1111122,1111122,1111122' 
DISL,ioos:station:DISL:CATA:1,2013-01-01T22:00:00Z,30.3085,-88.1395,0.0,4.55,163.7,-9999.0,'1111122,1111122,1111122' 
DISL,ioos:station:DISL:CATA:1,2013-01-01T22:30:00Z,30.3085,-88.1395,0.0,3.8,150.8,-9999.0,'1111122,1111122,1111122' 
DISL,ioos:station:DISL:CATA:1,2013-01-01T23:00:00Z,30.3085,-88.1395,0.0,3.51,161.5,-9999.0,'1111122,1111122,1111122' 
DISL,ioos:station:DISL:CATA:1,2013-01-01T23:30:00Z,30.3085,-88.1395,0.0,4.31,173.7,-9999.0,'1111122,1111122,1111122' 
DISL,ioos:station:DISL:CATA:1,2013-01-02T00:00:00Z,30.3085,-88.1395,0.0,4.65,179.2,-9999.0,'1111122,1111122,1111122' 
DISL,ioos:station:DISL:CATA:1,2013-01-02T00:30:00Z,30.3085,-88.1395,0.0,4.5,177.7,-9999.0,'1111122,1111122,1111122' 
DISL,ioos:station:DISL:CATA:1,2013-01-02T01:00:00Z,30.3085,-88.1395,0.0,4.8,177.7,-9999.0,'1111122,1111122,1111122' 
DISL,ioos:station:DISL:CATA:1,2013-01-02T01:30:00Z,30.3085,-88.1395,0.0,4.76,182.9,-9999.0,'1111122,1111122,1111122' 
DISL,ioos:station:DISL:CATA:1,2013-01-02T02:00:00Z,30.3085,-88.1395,0.0,4.29,197.5,-9999.0,'1111122,1111122,1111122' 
DISL,ioos:station:DISL:CATA:1,2013-01-02T02:30:00Z,30.3085,-88.1395,0.0,4.85,239.4,-9999.0,'1111122,1111122,1111122' 
DISL,ioos:station:DISL:CATA:1,2013-01-02T03:00:00Z,30.3085,-88.1395,0.0,5.4,271.9,-9999.0,'1111122,1111122,1111122' 
DISL,ioos:station:DISL:CATA:1,2013-01-02T03:30:00Z,30.3085,-88.1395,0.0,4.57,267.6,-9999.0,'1111122,1111122,1111122' 
DISL,ioos:station:DISL:CATA:1,2013-01-02T04:00:00Z,30.3085,-88.1395,0.0,4.19,257.8,-9999.0,'1111122,1111122,1111122' 
DISL,ioos:station:DISL:CATA:1,2013-01-02T04:30:00Z,30.3085,-88.1395,0.0,7.25,337.9,-9999.0,'1111122,1111122,1111122' 
DISL,ioos:station:DISL:CATA:1,2013-01-02T05:00:00Z,30.3085,-88.1395,0.0,6.84,356.1,-9999.0,'1111122,1111122,1111122' 
DISL,ioos:station:DISL:CATA:1,2013-01-02T05:30:00Z,30.3085,-88.1395,0.0,5.91,8.75,-9999.0,'1111122,1111122,1111122' 
DISL,ioos:station:DISL:CATA:1,2013-01-02T06:00:00Z,30.3085,-88.1395,0.0,7.1,11.14,-9999.0,'1111122,1111122,1111122' 
DISL,ioos:station:DISL:CATA:1,2013-01-02T06:30:00Z,30.3085,-88.1395,0.0,5.94,9.02,-9999.0,'1111122,1111122,1111122' 
DISL,ioos:station:DISL:CATA:1,2013-01-02T07:00:00Z,30.3085,-88.1395,0.0,5.94,17.65,-9999.0,'1111122,1111122,1111122' 
DISL,ioos:station:DISL:CATA:1,2013-01-02T07:30:00Z,30.3085,-88.1395,0.0,5.62,12.14,-9999.0,'1111122,1111122,1111122' 
DISL,ioos:station:DISL:CATA:1,2013-01-02T08:00:00Z,30.3085,-88.1395,0.0,5.99,7.751,-9999.0,'1111122,1111122,1111122' 
DISL,ioos:station:DISL:CATA:1,2013-01-02T08:30:00Z,30.3085,-88.1395,0.0,6.2,6.118,-9999.0,'1111122,1111122,1111122' 
DISL,ioos:station:DISL:CATA:1,2013-01-02T09:00:00Z,30.3085,-88.1395,0.0,5.26,9.94,-9999.0,'1111122,1111122,1111122' 
DISL,ioos:station:DISL:CATA:1,2013-01-02T09:30:00Z,30.3085,-88.1395,0.0,6.61,3.117,-9999.0,'1111122,1111122,1111122' 
DISL,ioos:station:DISL:CATA:1,2013-01-02T10:00:00Z,30.3085,-88.1395,0.0,4.94,16.92,-9999.0,'1111122,1111122,1111122' 
DISL,ioos:station:DISL:CATA:1,2013-01-02T10:30:00Z,30.3085,-88.1395,0.0,6.88,11.3,-9999.0,'1111122,1111122,1111122' 
DISL,ioos:station:DISL:CATA:1,2013-01-02T11:00:00Z,30.3085,-88.1395,0.0,6.41,2.357,-9999.0,'1111122,1111122,1111122' 
DISL,ioos:station:DISL:CATA:1,2013-01-02T11:30:00Z,30.3085,-88.1395,0.0,7.46,16.86,-9999.0,'1111122,1111122,1111122' 
DISL,ioos:station:DISL:CATA:1,2013-01-02T12:00:00Z,30.3085,-88.1395,0.0,4.93,12.26,-9999.0,'1111122,1111122,1111122' 
DISL,ioos:station:DISL:CATA:1,2013-01-02T12:30:00Z,30.3085,-88.1395,0.0,5.32,13.83,-9999.0,'1111122,1111122,1111122' 
DISL,ioos:station:DISL:CATA:1,2013-01-02T13:00:00Z,30.3085,-88.1395,0.0,6.53,19.22,-9999.0,'1111122,1111122,1111122' 
DISL,ioos:station:DISL:CATA:1,2013-01-02T13:30:00Z,30.3085,-88.1395,0.0,5.29,7.091,-9999.0,'1111122,1111122,1111122' 
DISL,ioos:station:DISL:CATA:1,2013-01-02T14:00:00Z,30.3085,-88.1395,0.0,6.2,12.79,-9999.0,'1111122,1111122,1111122' 
DISL,ioos:station:DISL:CATA:1,2013-01-02T14:30:00Z,30.3085,-88.1395,0.0,5.73,21.86,-9999.0,'1111122,1111122,1111122' 
DISL,ioos:station:DISL:CATA:1,2013-01-02T15:00:00Z,30.3085,-88.1395,0.0,5.71,19.57,-9999.0,'1111122,1111122,1111122' 
DISL,ioos:station:DISL:CATA:1,2013-01-02T15:30:00Z,30.3085,-88.1395,0.0,5.97,6.443,-9999.0,'1111122,1111122,1111122' 
DISL,ioos:station:DISL:CATA:1,2013-01-02T16:00:00Z,30.3085,-88.1395,0.0,5.01,23.89,-9999.0,'1111122,1111122,1111122' 
DISL,ioos:station:DISL:CATA:1,2013-01-02T16:30:00Z,30.3085,-88.1395,0.0,5.84,15.3,-9999.0,'1111122,1111122,1111122' 
DISL,ioos:station:DISL:CATA:1,2013-01-02T17:00:00Z,30.3085,-88.1395,0.0,5.81,22.22,-9999.0,'1111122,1111122,1111122' 
DISL,ioos:station:DISL:CATA:1,2013-01-02T17:30:00Z,30.3085,-88.1395,0.0,5.73,359.8,-9999.0,'1111122,1111122,1111122' 
DISL,ioos:station:DISL:CATA:1,2013-01-02T18:00:00Z,30.3085,-88.1395,0.0,4.75,3.205,-9999.0,'1111122,1111122,1111122' 
DISL,ioos:station:DISL:CATA:1,2013-01-02T18:30:00Z,30.3085,-88.1395,0.0,5.12,13.19,-9999.0,'1111122,1111122,1111122' 
DISL,ioos:station:DISL:CATA:1,2013-01-02T19:00:00Z,30.3085,-88.1395,0.0,4.67,9.28,-9999.0,'1111122,1111122,1111122' 
DISL,ioos:station:DISL:CATA:1,2013-01-02T19:30:00Z,30.3085,-88.1395,0.0,4.8,14.95,-9999.0,'1111122,1111122,1111122' 
DISL,ioos:station:DISL:CATA:1,2013-01-02T20:00:00Z,30.3085,-88.1395,0.0,4.33,20.24,-9999.0,'1111122,1111122,1111122' 
DISL,ioos:station:DISL:CATA:1,2013-01-02T20:30:00Z,30.3085,-88.1395,0.0,5.32,357.2,-9999.0,'1111122,1111122,1111122' 
DISL,ioos:station:DISL:CATA:1,2013-01-02T21:00:00Z,30.3085,-88.1395,0.0,4.92,5.997,-9999.0,'1111122,1111122,1111122' 
DISL,ioos:station:DISL:CATA:1,2013-01-02T21:30:00Z,30.3085,-88.1395,0.0,4.7,15.14,-9999.0,'1111122,1111122,1111122' 
DISL,ioos:station:DISL:CATA:1,2013-01-02T22:00:00Z,30.3085,-88.1395,0.0,5.11,350.3,-9999.0,'1111122,1111122,1111122' 
DISL,ioos:station:DISL:CATA:1,2013-01-02T22:30:00Z,30.3085,-88.1395,0.0,4.76,358.1,-9999.0,'1111122,1111122,1111122' 
DISL,ioos:station:DISL:CATA:1,2013-01-02T23:00:00Z,30.3085,-88.1395,0.0,4.67,352.7,-9999.0,'1111122,1111122,1111122' 
DISL,ioos:station:DISL:CATA:1,2013-01-02T23:30:00Z,30.3085,-88.1395,0.0,5.46,338.8,-9999.0,'1111122,1111122,1111122' 
DISL,ioos:station:DISL:CATA:1,2013-01-03T00:00:00Z,30.3085,-88.1395,0.0,5.41,352.2,-9999.0,'1111122,1111122,1111122' 
DISL,ioos:station:DISL:CATA:1,2013-01-03T00:30:00Z,30.3085,-88.1395,0.0,4.89,0.712,-9999.0,'1111122,1111122,1111122' 
DISL,ioos:station:DISL:CATA:1,2013-01-03T01:00:00Z,30.3085,-88.1395,0.0,5.08,16.92,-9999.0,'1111122,1111122,1111122' 
DISL,ioos:station:DISL:CATA:1,2013-01-03T01:30:00Z,30.3085,-88.1395,0.0,5.85,4.22,-9999.0,'1111122,1111122,1111122' 
DISL,ioos:station:DISL:CATA:1,2013-01-03T02:00:00Z,30.3085,-88.1395,0.0,5.83,8.74,-9999.0,'1111122,1111122,1111122' 
DISL,ioos:station:DISL:CATA:1,2013-01-03T02:30:00Z,30.3085,-88.1395,0.0,5.06,12.73,-9999.0,'1111122,1111122,1111122' 
DISL,ioos:station:DISL:CATA:1,2013-01-03T03:00:00Z,30.3085,-88.1395,0.0,4.75,14.79,-9999.0,'1111122,1111122,1111122' 
DISL,ioos:station:DISL:CATA:1,2013-01-03T03:30:00Z,30.3085,-88.1395,0.0,4.43,11.64,-9999.0,'1111122,1111122,1111122' 
DISL,ioos:station:DISL:CATA:1,2013-01-03T04:00:00Z,30.3085,-88.1395,0.0,5.23,19.92,-9999.0,'1111122,1111122,1111122' 
DISL,ioos:station:DISL:CATA:1,2013-01-03T04:30:00Z,30.3085,-88.1395,0.0,5.55,12.32,-9999.0,'1111122,1111122,1111122' 
DISL,ioos:station:DISL:CATA:1,2013-01-03T05:00:00Z,30.3085,-88.1395,0.0,5.22,9.77,-9999.0,'1111122,1111122,1111122' 
DISL,ioos:station:DISL:CATA:1,2013-01-03T05:30:00Z,30.3085,-88.1395,0.0,5.61,18.67,-9999.0,'1111122,1111122,1111122' 
DISL,ioos:station:DISL:CATA:1,2013-01-03T06:00:00Z,30.3085,-88.1395,0.0,7.2,9.59,-9999.0,'1111122,1111122,1111122' 
DISL,ioos:station:DISL:CATA:1,2013-01-03T06:30:00Z,30.3085,-88.1395,0.0,6.57,3.279,-9999.0,'1111122,1111122,1111122' 
DISL,ioos:station:DISL:CATA:1,2013-01-03T07:00:00Z,30.3085,-88.1395,0.0,5.97,4.543,-9999.0,'1111122,1111122,1111122' 
DISL,ioos:station:DISL:CATA:1,2013-01-03T07:30:00Z,30.3085,-88.1395,0.0,5.56,21.65,-9999.0,'1111122,1111122,1111122' 
DISL,ioos:station:DISL:CATA:1,2013-01-03T08:00:00Z,30.3085,-88.1395,0.0,5.54,6.918,-9999.0,'1111122,1111122,1111122' 
DISL,ioos:station:DISL:CATA:1,2013-01-03T08:30:00Z,30.3085,-88.1395,0.0,5.64,14.56,-9999.0,'1111122,1111122,1111122' 
DISL,ioos:station:DISL:CATA:1,2013-01-03T09:00:00Z,30.3085,-88.1395,0.0,5.16,15.64,-9999.0,'1111122,1111122,1111122' 
DISL,ioos:station:DISL:CATA:1,2013-01-03T09:30:00Z,30.3085,-88.1395,0.0,5.31,9.84,-9999.0,'1111122,1111122,1111122' 
DISL,ioos:station:DISL:CATA:1,2013-01-03T10:00:00Z,30.3085,-88.1395,0.0,5.15,0.312,-9999.0,'1111122,1111122,1111122' 
DISL,ioos:station:DISL:CATA:1,2013-01-03T10:30:00Z,30.3085,-88.1395,0.0,4.21,14.79,-9999.0,'1111122,1111122,1111122' 
DISL,ioos:station:DISL:CATA:1,2013-01-03T11:00:00Z,30.3085,-88.1395,0.0,3.74,12.99,-9999.0,'1111122,1111122,1111122' 
DISL,ioos:station:DISL:CATA:1,2013-01-03T11:30:00Z,30.3085,-88.1395,0.0,4.5,16.59,-9999.0,'1111122,1111122,1111122' 
DISL,ioos:station:DISL:CATA:1,2013-01-03T12:00:00Z,30.3085,-88.1395,0.0,5.19,15.3,-9999.0,'1111122,1111122,1111122' 
DISL,ioos:station:DISL:CATA:1,2013-01-03T12:30:00Z,30.3085,-88.1395,0.0,5.39,3.006,-9999.0,'1111122,1111122,1111122' 
DISL,ioos:station:DISL:CATA:1,2013-01-03T13:00:00Z,30.3085,-88.1395,0.0,6.28,6.797,-9999.0,'1111122,1111122,1111122' 
DISL,ioos:station:DISL:CATA:1,2013-01-03T13:30:00Z,30.3085,-88.1395,0.0,8.29,358.5,-9999.0,'1111122,1111122,1111122' 
DISL,ioos:station:DISL:CATA:1,2013-01-03T14:00:00Z,30.3085,-88.1395,0.0,5.09,15.09,-9999.0,'1111122,1111122,1111122' 
DISL,ioos:station:DISL:CATA:1,2013-01-03T14:30:00Z,30.3085,-88.1395,0.0,6.67,19.42,-9999.0,'1111122,1111122,1111122' 
DISL,ioos:station:DISL:CATA:1,2013-01-03T15:00:00Z,30.3085,-88.1395,0.0,6.2,7.778,-9999.0,'1111122,1111122,1111122' 
DISL,ioos:station:DISL:CATA:1,2013-01-03T15:30:00Z,30.3085,-88.1395,0.0,6.07,13.64,-9999.0,'1111122,1111122,1111122' 
DISL,ioos:station:DISL:CATA:1,2013-01-03T16:00:00Z,30.3085,-88.1395,0.0,6.85,14.65,-9999.0,'1111122,1111122,1111122' 
DISL,ioos:station:DISL:CATA:1,2013-01-03T16:30:00Z,30.3085,-88.1395,0.0,4.85,13.95,-9999.0,'1111122,1111122,1111122' 
DISL,ioos:station:DISL:CATA:1,2013-01-03T17:00:00Z,30.3085,-88.1395,0.0,6.06,5.149,-9999.0,'1111122,1111122,1111122' 
DISL,ioos:station:DISL:CATA:1,2013-01-03T17:30:00Z,30.3085,-88.1395,0.0,6.36,358.6,-9999.0,'1111122,1111122,1111122' 
DISL,ioos:station:DISL:CATA:1,2013-01-03T18:00:00Z,30.3085,-88.1395,0.0,5.04,20.42,-9999.0,'1111122,1111122,1111122' 
DISL,ioos:station:DISL:CATA:1,2013-01-03T18:30:00Z,30.3085,-88.1395,0.0,5.12,13.42,-9999.0,'1111122,1111122,1111122' 
DISL,ioos:station:DISL:CATA:1,2013-01-03T19:00:00Z,30.3085,-88.1395,0.0,5.59,356.2,-9999.0,'1111122,1111122,1111122' 
DISL,ioos:station:DISL:CATA:1,2013-01-03T19:30:00Z,30.3085,-88.1395,0.0,5.29,4.274,-9999.0,'1111122,1111122,1111122' 
DISL,ioos:station:DISL:CATA:1,2013-01-03T20:00:00Z,30.3085,-88.1395,0.0,5.01,5.238,-9999.0,'1111122,1111122,1111122' 
DISL,ioos:station:DISL:CATA:1,2013-01-03T20:30:00Z,30.3085,-88.1395,0.0,6.1,1.862,-9999.0,'1111122,1111122,1111122' 
DISL,ioos:station:DISL:CATA:1,2013-01-03T21:00:00Z,30.3085,-88.1395,0.0,6.46,8.92,-9999.0,'1111122,1111122,1111122' 
DISL,ioos:station:DISL:CATA:1,2013-01-03T21:30:00Z,30.3085,-88.1395,0.0,5.51,19.12,-9999.0,'1111122,1111122,1111122' 
DISL,ioos:station:DISL:CATA:1,2013-01-03T22:00:00Z,30.3085,-88.1395,0.0,6.06,23.15,-9999.0,'1111122,1111122,1111122' 
DISL,ioos:station:DISL:CATA:1,2013-01-03T22:30:00Z,30.3085,-88.1395,0.0,5.75,16.44,-9999.0,'1111122,1111122,1111122' 
DISL,ioos:station:DISL:CATA:1,2013-01-03T23:00:00Z,30.3085,-88.1395,0.0,4.97,11.91,-9999.0,'1111122,1111122,1111122' 
DISL,ioos:station:DISL:CATA:1,2013-01-03T23:30:00Z,30.3085,-88.1395,0.0,4.63,13.96,-9999.0,'1111122,1111122,1111122' 
DISL,ioos:station:DISL:CATA:1,2013-01-04T00:00:00Z,30.3085,-88.1395,0.0,4.92,6.266,-9999.0,'1111122,1111122,1111122' 
DISL,ioos:station:DISL:CATA:1,2013-01-04T00:30:00Z,30.3085,-88.1395,0.0,3.94,1.363,-9999.0,'1111122,1111122,1111122' 
DISL,ioos:station:DISL:CATA:1,2013-01-04T01:00:00Z,30.3085,-88.1395,0.0,3.3,357.2,-9999.0,'1111122,1111122,1111122' 
DISL,ioos:station:DISL:CATA:1,2013-01-04T01:30:00Z,30.3085,-88.1395,0.0,3.87,345.4,-9999.0,'1111122,1111122,1111122' 
DISL,ioos:station:DISL:CATA:1,2013-01-04T02:00:00Z,30.3085,-88.1395,0.0,3.48,5.446,-9999.0,'1111122,1111122,1111122' 
DISL,ioos:station:DISL:CATA:1,2013-01-04T02:30:00Z,30.3085,-88.1395,0.0,2.87,5.133,-9999.0,'1111122,1111122,1111122' 
DISL,ioos:station:DISL:CATA:1,2013-01-04T03:00:00Z,30.3085,-88.1395,0.0,2.51,4.358,-9999.0,'1111122,1111122,1111122' 
DISL,ioos:station:DISL:CATA:1,2013-01-04T03:30:00Z,30.3085,-88.1395,0.0,4.4,7.873,-9999.0,'1111122,1111122,1111122' 
DISL,ioos:station:DISL:CATA:1,2013-01-04T04:00:00Z,30.3085,-88.1395,0.0,4.28,6.708,-9999.0,'1111122,1111122,1111122' 
DISL,ioos:station:DISL:CATA:1,2013-01-04T04:30:00Z,30.3085,-88.1395,0.0,3.34,8.67,-9999.0,'1111122,1111122,1111122' 
DISL,ioos:station:DISL:CATA:1,2013-01-04T05:00:00Z,30.3085,-88.1395,0.0,3.65,1.101,-9999.0,'1111122,1111122,1111122' 
DISL,ioos:station:DISL:CATA:1,2013-01-04T05:30:00Z,30.3085,-88.1395,0.0,4.58,7.695,-9999.0,'1111122,1111122,1111122' 
DISL,ioos:station:DISL:CATA:1,2013-01-04T06:00:00Z,30.3085,-88.1395,0.0,4.61,5.581,-9999.0,'1111122,1111122,1111122' 
DISL,ioos:station:DISL:CATA:1,2013-01-04T06:30:00Z,30.3085,-88.1395,0.0,3.78,7.408,-9999.0,'1111122,1111122,1111122' 
DISL,ioos:station:DISL:CATA:1,2013-01-04T07:00:00Z,30.3085,-88.1395,0.0,3.77,2.069,-9999.0,'1111122,1111122,1111122' 
DISL,ioos:station:DISL:CATA:1,2013-01-04T07:30:00Z,30.3085,-88.1395,0.0,3.77,5.274,-9999.0,'1111122,1111122,1111122' 
DISL,ioos:station:DISL:CATA:1,2013-01-04T08:00:00Z,30.3085,-88.1395,0.0,4.32,2.005,-9999.0,'1111122,1111122,1111122' 
DISL,ioos:station:DISL:CATA:1,2013-01-04T08:30:00Z,30.3085,-88.1395,0.0,4.91,14.3,-9999.0,'1111122,1111122,1111122' 
DISL,ioos:station:DISL:CATA:1,2013-01-04T09:00:00Z,30.3085,-88.1395,0.0,4.81,17.21,-9999.0,'1111122,1111122,1111122' 
DISL,ioos:station:DISL:CATA:1,2013-01-04T09:30:00Z,30.3085,-88.1395,0.0,5.38,10.17,-9999.0,'1111122,1111122,1111122' 
DISL,ioos:station:DISL:CATA:1,2013-01-04T10:00:00Z,30.3085,-88.1395,0.0,5.21,9.25,-9999.0,'1111122,1111122,1111122' 
DISL,ioos:station:DISL:CATA:1,2013-01-04T10:30:00Z,30.3085,-88.1395,0.0,4.87,12.51,-9999.0,'1111122,1111122,1111122' 
DISL,ioos:station:DISL:CATA:1,2013-01-04T11:00:00Z,30.3085,-88.1395,0.0,4.89,8.07,-9999.0,'1111122,1111122,1111122' 
DISL,ioos:station:DISL:CATA:1,2013-01-04T11:30:00Z,30.3085,-88.1395,0.0,8.76,38.4,-9999.0,'1111122,1111122,1111122' 
DISL,ioos:station:DISL:CATA:1,2013-01-04T12:00:00Z,30.3085,-88.1395,0.0,8.72,38.98,-9999.0,'1111122,1111122,1111122' 
DISL,ioos:station:DISL:CATA:1,2013-01-04T12:30:00Z,30.3085,-88.1395,0.0,8.44,34.48,-9999.0,'1111122,1111122,1111122' 
DISL,ioos:station:DISL:CATA:1,2013-01-04T13:00:00Z,30.3085,-88.1395,0.0,9.72,42.59,-9999.0,'1111122,1111122,1111122' 
DISL,ioos:station:DISL:CATA:1,2013-01-04T13:30:00Z,30.3085,-88.1395,0.0,8.68,36.52,-9999.0,'1111122,1111122,1111122' 
DISL,ioos:station:DISL:CATA:1,2013-01-04T14:00:00Z,30.3085,-88.1395,0.0,7.21,32.25,-9999.0,'1111122,1111122,1111122' 
DISL,ioos:station:DISL:CATA:1,2013-01-04T14:30:00Z,30.3085,-88.1395,0.0,7.22,34.16,-9999.0,'1111122,1111122,1111122' 
DISL,ioos:station:DISL:CATA:1,2013-01-04T15:00:00Z,30.3085,-88.1395,0.0,7.86,30.22,-9999.0,'1111122,1111122,1111122' 
DISL,ioos:station:DISL:CATA:1,2013-01-04T15:30:00Z,30.3085,-88.1395,0.0,7.6,29.28,-9999.0,'1111122,1111122,1111122' 
DISL,ioos:station:DISL:CATA:1,2013-01-04T16:00:00Z,30.3085,-88.1395,0.0,7.49,33.11,-9999.0,'1111122,1111122,1111122' 
DISL,ioos:station:DISL:CATA:1,2013-01-04T16:30:00Z,30.3085,-88.1395,0.0,7.05,34.97,-9999.0,'1111122,1111122,1111122' 
DISL,ioos:station:DISL:CATA:1,2013-01-04T17:00:00Z,30.3085,-88.1395,0.0,6.47,33.14,-9999.0,'1111122,1111122,1111122' 
DISL,ioos:station:DISL:CATA:1,2013-01-04T17:30:00Z,30.3085,-88.1395,0.0,5.41,29.02,-9999.0,'1111122,1111122,1111122' 
DISL,ioos:station:DISL:CATA:1,2013-01-04T18:00:00Z,30.3085,-88.1395,0.0,4.77,38.45,-9999.0,'1111122,1111122,1111122' 
DISL,ioos:station:DISL:CATA:1,2013-01-04T18:30:00Z,30.3085,-88.1395,0.0,5.84,36.67,-9999.0,'1111122,1111122,1111122' 
DISL,ioos:station:DISL:CATA:1,2013-01-04T19:00:00Z,30.3085,-88.1395,0.0,4.67,29.55,-9999.0,'1111122,1111122,1111122' 
DISL,ioos:station:DISL:CATA:1,2013-01-04T19:30:00Z,30.3085,-88.1395,0.0,4.7,32.26,-9999.0,'1111122,1111122,1111122' 
DISL,ioos:station:DISL:CATA:1,2013-01-04T20:00:00Z,30.3085,-88.1395,0.0,5.33,39.0,-9999.0,'1111122,1111122,1111122' 
DISL,ioos:station:DISL:CATA:1,2013-01-04T20:30:00Z,30.3085,-88.1395,0.0,5.09,34.39,-9999.0,'1111122,1111122,1111122' 
DISL,ioos:station:DISL:CATA:1,2013-01-04T21:00:00Z,30.3085,-88.1395,0.0,4.87,19.08,-9999.0,'1111122,1111122,1111122' 
DISL,ioos:station:DISL:CATA:1,2013-01-04T21:30:00Z,30.3085,-88.1395,0.0,4.8,17.27,-9999.0,'1111122,1111122,1111122' 
DISL,ioos:station:DISL:CATA:1,2013-01-04T22:00:00Z,30.3085,-88.1395,0.0,4.58,19.47,-9999.0,'1111122,1111122,1111122' 
DISL,ioos:station:DISL:CATA:1,2013-01-04T22:30:00Z,30.3085,-88.1395,0.0,4.84,15.14,-9999.0,'1111122,1111122,1111122' 
DISL,ioos:station:DISL:CATA:1,2013-01-04T23:00:00Z,30.3085,-88.1395,0.0,3.68,43.82,-9999.0,'1111122,1111122,1111122' 
DISL,ioos:station:DISL:CATA:1,2013-01-04T23:30:00Z,30.3085,-88.1395,0.0,2.73,45.97,-9999.0,'1111122,1111122,1111122' 
DISL,ioos:station:DISL:CATA:1,2013-01-05T00:00:00Z,30.3085,-88.1395,0.0,2.86,20.92,-9999.0,'1111122,1111122,1111122' 
DISL,ioos:station:DISL:CATA:1,2013-01-05T00:30:00Z,30.3085,-88.1395,0.0,2.91,24.72,-9999.0,'1111122,1111122,1111122' 
DISL,ioos:station:DISL:CATA:1,2013-01-05T01:00:00Z,30.3085,-88.1395,0.0,2.67,26.96,-9999.0,'1111122,1111122,1111122' 
DISL,ioos:station:DISL:CATA:1,2013-01-05T01:30:00Z,30.3085,-88.1395,0.0,2.44,38.53,-9999.0,'1111122,1111122,1111122' 
DISL,ioos:station:DISL:CATA:1,2013-01-05T02:00:00Z,30.3085,-88.1395,0.0,2.71,10.76,-9999.0,'1111122,1111122,1111122' 
DISL,ioos:station:DISL:CATA:1,2013-01-05T02:30:00Z,30.3085,-88.1395,0.0,2.36,1.214,-9999.0,'1111122,1111122,1111122' 
DISL,ioos:station:DISL:CATA:1,2013-01-05T03:00:00Z,30.3085,-88.1395,0.0,3.09,3.664,-9999.0,'1111122,1111122,1111122' 
DISL,ioos:station:DISL:CATA:1,2013-01-05T03:30:00Z,30.3085,-88.1395,0.0,3.0,14.82,-9999.0,'1111122,1111122,1111122' 
DISL,ioos:station:DISL:CATA:1,2013-01-05T04:00:00Z,30.3085,-88.1395,0.0,3.76,15.36,-9999.0,'1111122,1111122,1111122' 
DISL,ioos:station:DISL:CATA:1,2013-01-05T04:30:00Z,30.3085,-88.1395,0.0,3.41,13.04,-9999.0,'1111122,1111122,1111122' 
DISL,ioos:station:DISL:CATA:1,2013-01-05T05:00:00Z,30.3085,-88.1395,0.0,3.23,21.55,-9999.0,'1111122,1111122,1111122' 